Probability
0 0 0 0 0 0 0 0 0 0 0 0 0 0 0 0 0 0 0 0 0 0 0 0 0 0 0 0 0 0 0 0 0 0 3 3 13 16 19 23 23 32 35 39
0 0 0 0 0 0 0 0 0 0 0 0 0 0 0 0 0 0 0 0 0 0 0 0 0 0 0 0 0 0 0 0 0 3 3 3 3 6 3 19 23 23 26 35
0 0 0 0 0 0 0 0 0 0 0 0 0 0 0 0 0 0 0 0 0 0 0 0 0 0 0 0 0 0 0 0 0 0 0 0 3 13 16 13 26 19 23 19
0 0 0 0 0 0 0 0 0 0 0 0 0 0 0 0 0 0 0 0 0 0 0 0 0 0 0 0 0 0 0 0 0 0 0 0 0 3 6 16 19 16 16 19
0 0 0 0 0 0 0 0 0 0 0 0 0 0 0 0 0 0 0 0 0 0 0 0 0 0 0 0 0 0 0 0 0 0 0 0 10 10 10 10 13 16 10 16
0 0 0 0 0 0 0 0 0 0 0 0 0 0 0 0 0 0 0 0 0 0 0 0 0 0 0 0 0 0 0 0 0 3 3 6 3 3 6 6 13 13 10 19
0 0 0 0 0 0 0 0 0 0 0 0 0 0 0 0 0 0 0 0 0 0 0 0 0 0 0 0 0 0 0 0 0 3 3 3 6 10 10 6 6 10 13 16
0 0 0 0 0 0 0 0 0 0 0 0 0 0 0 0 0 0 0 0 0 0 0 0 0 0 0 0 0 0 0 0 0 0 3 3 3 3 6 10 10 13 13 19
0 0 0 0 0 0 0 0 0 0 0 0 0 0 0 0 0 0 0 0 0 0 0 0 0 0 0 0 0 0 0 0 0 0 0 3 3 3 3 6 6 6 10 10
0 0 0 0 0 0 0 0 0 0 0 0 0 0 0 0 0 0 0 0 0 0 0 0 0 0 0 0 0 0 0 0 0 0 0 0 0 0 3 3 3 3 3 6
0 0 0 0 0 0 0 0 0 0 0 0 0 0 0 0 0 0 0 0 0 0 0 0 0 0 0 0 0 0 0 0 0 0 0 0 0 0 0 0 0 0 0 6
0 0 0 0 0 0 0 0 0 0 0 0 0 0 0 0 0 0 0 0 0 0 0 0 0 0 0 0 0 0 0 0 0 0 0 0 0 0 0 0 0 0 0 3
0 0 0 0 0 0 0 0 0 0 0 0 0 0 0 0 0 0 0 0 0 0 0 0 0 0 0 0 0 0 0 0 0 0 0 0 0 0 0 0 0 0 0 0
0 0 0 0 0 0 0 0 0 0 0 0 0 0 0 0 0 0 0 0 0 0 0 0 0 0 0 0 0 0 0 0 0 0 0 0 0 0 0 0 0 0 0 0
0 0 0 0 0 0 0 0 0 0 0 0 0 0 0 0 0 0 0 0 0 0 0 0 0 0 0 0 0 0 0 0 0 0 0 0 0 0 0 0 0 0 0 0
0 0 0 0 0 0 0 0 0 0 0 0 0 0 0 0 0 0 0 0 0 0 0 0 0 0 0 0 0 0 0 0 0 0 0 0 0 0 0 0 0 0 0 0
0 0 0 0 0 0 0 0 0 0 0 0 0 0 0 0 0 0 0 0 0 0 0 0 0 0 0 0 0 0 0 0 0 0 0 0 0 0 0 0 0 0 0 0
0 0 0 0 0 0 0 0 0 0 0 0 0 0 0 0 0 0 0 0 0 0 0 0 0 0 0 0 0 0 0 0 0 0 0 0 0 0 0 0 0 0 0 0
0 0 0 0 0 0 0 0 0 0 0 0 0 0 0 0 0 0 0 0 0 0 0 0 0 0 0 0 0 0 0 0 0 0 0 0 0 0 0 0 0 0 0 0
0 0 0 0 0 0 0 0 0 0 0 0 0 0 0 0 0 0 0 0 0 0 0 0 0 0 0 0 0 0 0 0 0 0 0 0 0 0 0 0 0 0 0 0
0 0 0 0 0 0 0 0 0 0 0 0 0 0 0 0 0 0 0 0 0 0 0 0 0 0 0 0 0 0 0 0 0 0 0 0 0 0 0 0 0 0 0 0
0 0 0 0 0 0 0 0 0 0 0 0 0 0 0 0 0 0 0 0 0 0 0 0 0 0 0 0 0 0 0 0 0 0 0 0 0 0 0 0 0 0 0 0
0 0 0 0 0 0 0 0 0 0 0 0 0 0 0 0 0 0 0 0 0 0 0 0 0 0 0 0 0 0 0 0 0 0 0 0 0 0 0 0 0 0 0 0
0 0 0 0 0 0 0 0 0 0 0 0 0 0 0 0 0 0 0 0 0 0 0 0 0 0 0 0 0 0 0 0 0 0 0 0 0 0 0 0 0 0 0 0
0 0 0 0 0 0 0 0 0 0 0 0 0 0 0 0 0 0 0 0 0 0 0 0 0 0 0 0 0 0 0 0 0 0 0 0 0 0 0 0 0 0 0 0
0 0 0 0 0 0 0 0 0 0 0 0 0 0 0 0 0 0 0 0 0 0 0 0 0 0 0 0 0 0 0 0 0 0 0 0 0 0 0 0 0 0 0 0
Height
5907 5908 5906 5906 5905 5904 5902 5900 5897 5891 5889 5886 5882 5878 5875 5872 5869 5865 5861 5858 5854 5851 5847 5844 5842 5839 5837 5835 5833 5832 5831 5830 5830 5830 5830 5831 5832 5833 5834 5836 5838 5840 5842 5844
5905 5904 5904 5903 5902 5900 5898 5896 5893 5886 5885 5881 5876 5872 5869 5867 5863 5860 5855 5851 5848 5844 5840 5837 5834 5831 5828 5826 5824 5822 5821 5820 5819 5819 5819 5820 5821 5822 5823 5825 5827 5830 5832 5834
5901 5901 5901 5899 5898 5896 5893 5890 5888 5883 5879 5876 5873 5868 5864 5862 5858 5854 5850 5846 5842 5837 5834 5830 5827 5823 5820 5818 5815 5813 5812 5810 5809 5809 5808 5809 5810 5811 5813 5815 5817 5819 5822 5825
5899 5899 5898 5896 5893 5892 5889 5886 5883 5879 5876 5871 5869 5864 5859 5856 5853 5849 5845 5840 5836 5832 5828 5824 5820 5817 5814 5811 5808 5805 5803 5802 5800 5799 5799 5799 5800 5801 5802 5804 5806 5808 5811 5814
5896 5897 5895 5893 5891 5888 5885 5882 5879 5875 5872 5869 5865 5862 5857 5854 5849 5845 5841 5836 5832 5828 5823 5819 5815 5811 5808 5805 5801 5799 5796 5794 5792 5791 5790 5790 5790 5791 5792 5793 5795 5798 5800 5803
5894 5894 5892 5890 5887 5884 5881 5878 5875 5872 5869 5866 5864 5861 5855 5852 5847 5843 5838 5834 5829 5824 5820 5815 5811 5807 5804 5800 5797 5794 5791 5788 5785 5783 5782 5781 5781 5781 5782 5783 5784 5787 5790 5794
5892 5891 5890 5887 5884 5882 5879 5876 5873 5869 5866 5865 5862 5859 5856 5850 5846 5841 5837 5832 5827 5822 5818 5813 5809 5805 5801 5797 5794 5790 5787 5784 5781 5778 5776 5774 5773 5773 5773 5774 5775 5778 5781 5784
5891 5889 5887 5885 5882 5879 5876 5874 5871 5869 5867 5863 5860 5857 5854 5849 5845 5840 5835 5831 5826 5821 5816 5812 5807 5803 5800 5796 5792 5788 5785 5781 5778 5775 5772 5770 5768 5767 5767 5768 5769 5771 5773 5776
5890 5887 5886 5883 5880 5878 5875 5872 5869 5867 5865 5863 5859 5855 5853 5848 5844 5839 5835 5830 5825 5821 5816 5812 5807 5803 5799 5795 5791 5787 5783 5780 5777 5773 5770 5768 5765 5764 5764 5764 5765 5765 5767 5769
5889 5887 5885 5883 5880 5877 5874 5871 5868 5866 5863 5861 5859 5854 5851 5847 5843 5839 5835 5830 5826 5821 5817 5813 5808 5804 5800 5796 5792 5787 5784 5780 5777 5774 5770 5767 5765 5764 5763 5762 5762 5762 5763 5765
5888 5887 5885 5882 5879 5876 5874 5871 5868 5865 5862 5860 5857 5856 5851 5847 5844 5840 5836 5832 5828 5823 5819 5815 5811 5806 5802 5798 5794 5790 5786 5782 5779 5775 5772 5769 5766 5765 5763 5762 5761 5760 5760 5761
5888 5886 5884 5882 5879 5876 5874 5871 5868 5866 5863 5860 5857 5858 5851 5848 5845 5841 5838 5834 5830 5826 5822 5818 5813 5809 5805 5801 5796 5792 5788 5784 5781 5777 5774 5771 5768 5766 5764 5763 5761 5760 5760 5759
5888 5887 5885 5882 5882 5878 5874 5871 5869 5866 5864 5860 5858 5858 5852 5850 5846 5843 5839 5836 5832 5828 5824 5820 5816 5812 5808 5804 5799 5795 5791 5787 5783 5780 5776 5773 5770 5768 5765 5764 5762 5761 5760 5759
5888 5887 5886 5884 5881 5878 5875 5873 5870 5868 5865 5862 5860 5857 5855 5852 5849 5845 5842 5838 5835 5831 5827 5823 5819 5815 5811 5807 5803 5798 5794 5790 5786 5783 5779 5776 5773 5770 5767 5765 5763 5761 5760 5759
5889 5888 5886 5883 5881 5879 5877 5874 5872 5869 5867 5864 5862 5859 5857 5854 5851 5848 5844 5841 5838 5834 5830 5826 5822 5818 5814 5810 5806 5802 5798 5794 5790 5786 5782 5779 5775 5772 5769 5766 5764 5762 5760 5759
5890 5889 5887 5885 5883 5881 5879 5876 5874 5871 5869 5867 5864 5862 5859 5856 5853 5850 5847 5844 5841 5837 5834 5830 5826 5822 5818 5814 5809 5805 5801 5797 5793 5789 5785 5782 5778 5775 5771 5768 5765 5763 5761 5760
5891 5890 5888 5886 5884 5883 5881 5879 5876 5874 5872 5869 5867 5865 5861 5859 5856 5853 5850 5847 5844 5840 5837 5833 5829 5825 5821 5817 5813 5809 5805 5801 5796 5792 5788 5784 5781 5777 5774 5770 5767 5765 5762 5760
5892 5890 5889 5887 5886 5884 5884 5880 5878 5876 5874 5871 5869 5867 5864 5861 5859 5856 5853 5850 5846 5843 5840 5836 5832 5829 5825 5821 5816 5812 5808 5804 5800 5795 5791 5787 5783 5780 5776 5773 5769 5766 5764 5761
5892 5891 5890 5888 5887 5885 5884 5881 5879 5877 5876 5873 5871 5868 5866 5863 5861 5858 5855 5852 5849 5846 5842 5839 5835 5831 5828 5824 5820 5816 5811 5807 5803 5799 5795 5791 5787 5783 5779 5776 5772 5768 5765 5762
5892 5891 5890 5889 5887 5886 5886 5883 5880 5879 5877 5875 5872 5870 5867 5865 5863 5861 5857 5854 5851 5848 5845 5841 5838 5834 5830 5827 5823 5819 5815 5811 5807 5802 5798 5794 5790 5786 5782 5778 5775 5771 5767 5764
5891 5890 5890 5888 5887 5886 5885 5883 5881 5881 5879 5876 5873 5871 5869 5866 5865 5862 5859 5856 5853 5850 5847 5844 5840 5837 5833 5830 5826 5822 5818 5814 5810 5806 5802 5798 5794 5790 5786 5782 5778 5774 5770 5767
5889 5889 5888 5887 5887 5888 5884 5883 5882 5881 5878 5876 5873 5871 5869 5867 5865 5862 5860 5857 5854 5852 5849 5846 5843 5839 5836 5832 5829 5825 5822 5818 5814 5810 5806 5802 5798 5794 5789 5785 5781 5778 5774 5771
5887 5887 5886 5886 5887 5885 5883 5882 5881 5879 5877 5875 5874 5872 5870 5867 5865 5863 5860 5858 5855 5853 5850 5847 5844 5841 5838 5835 5831 5828 5825 5821 5817 5813 5810 5806 5802 5798 5794 5790 5786 5782 5778 5775
5884 5883 5883 5883 5882 5882 5881 5880 5879 5878 5876 5874 5873 5871 5869 5867 5865 5863 5861 5858 5856 5854 5851 5848 5846 5843 5840 5837 5834 5831 5827 5824 5820 5817 5813 5809 5805 5802 5798 5794 5790 5786 5783 5780
5880 5880 5879 5879 5879 5878 5878 5877 5876 5875 5874 5873 5871 5870 5868 5866 5864 5862 5860 5858 5856 5854 5852 5849 5847 5844 5841 5838 5835 5832 5829 5826 5823 5820 5816 5813 5809 5805 5802 5798 5794 5791 5788 5784
5875 5875 5875 5875 5874 5874 5874 5873 5872 5872 5871 5870 5869 5868 5866 5865 5863 5861 5859 5857 5855 5853 5851 5849 5847 5844 5842 5839 5837 5834 5831 5828 5825 5822 5819 5816 5812 5809 5806 5802 5799 5796 5792 5789
Wind_Speed
16 17 18 19 20 22 24 26 28 34 34 34 34 33 31 30 31 32 33 34 35 35 36 36 36 36 37 38 39 40 40 41 41 42 43 43 44 44 44 44 43 43 41 40
17 18 18 20 22 23 25 26 27 32 30 29 30 30 29 27 28 29 30 31 31 32 33 33 34 34 34 35 36 37 37 38 39 40 40 41 42 42 42 42 42 42 41 40
18 19 18 21 23 23 24 26 25 27 28 26 27 28 28 26 26 26 28 29 29 29 29 29 30 30 31 31 31 32 33 34 35 36 37 38 40 40 40 40 40 40 40 40
17 17 19 21 23 22 23 24 23 23 24 25 25 26 27 26 25 26 27 27 27 27 27 26 26 26 26 27 27 28 29 30 31 32 33 34 35 37 38 38 38 39 39 38
15 15 18 20 21 21 21 22 21 20 20 20 20 21 26 24 24 25 26 26 25 25 25 24 23 23 23 23 23 24 25 26 27 28 30 31 33 34 35 36 37 36 36 37
14 15 17 18 18 19 19 19 18 17 17 17 17 20 26 24 24 24 24 23 23 23 22 21 21 20 20 20 20 21 21 21 23 24 25 26 28 29 31 32 33 33 34 34
11 12 14 16 16 16 16 16 16 15 16 18 19 22 22 22 22 21 21 21 21 21 20 20 20 19 18 19 19 19 18 18 18 18 19 21 22 24 25 27 28 29 30 31
11 13 11 13 15 15 15 14 14 11 8 15 18 19 19 19 19 19 19 19 20 20 20 19 18 18 18 18 17 17 16 16 16 15 15 15 15 16 17 20 22 24 25 27
9 11 11 13 13 13 14 13 13 11 10 10 15 18 16 16 17 17 18 19 19 19 19 17 17 18 18 17 16 15 14 14 14 14 13 12 11 9 9 11 14 17 20 22
7 9 9 10 11 12 12 13 12 11 11 8 11 16 17 16 16 17 18 18 19 19 18 18 18 19 19 19 18 17 16 15 15 14 13 11 9 7 6 7 8 11 14 16
6 7 7 9 11 13 13 13 12 12 12 11 11 13 14 15 16 16 17 17 18 19 19 19 20 20 20 19 19 20 19 17 17 15 14 13 10 9 8 7 6 6 8 12
6 7 9 10 12 13 13 12 13 13 12 12 12 13 13 14 15 15 16 17 17 18 19 19 20 20 20 20 20 20 20 19 18 17 16 14 13 11 10 9 7 5 4 6
7 8 9 11 12 13 12 12 13 13 13 13 13 13 13 14 15 15 16 17 18 18 19 20 20 20 20 21 21 21 20 20 19 18 17 16 15 13 11 10 8 7 5 4
8 9 11 13 14 14 14 13 13 13 14 14 14 14 13 14 15 16 17 17 18 18 19 20 21 21 21 21 22 22 21 21 20 20 19 18 17 15 13 12 11 9 7 5
9 10 11 12 13 14 14 14 13 13 14 14 14 14 14 15 16 16 17 17 18 19 20 21 21 21 22 22 22 22 22 21 21 21 20 18 18 17 15 13 12 11 9 7
9 10 11 11 12 13 13 13 14 14 14 13 14 14 14 15 16 16 17 17 18 19 20 21 21 21 22 22 22 22 22 22 22 21 20 20 19 18 17 16 14 12 10 9
7 9 10 11 11 12 12 13 13 13 13 13 13 14 14 15 15 16 16 16 17 17 19 20 21 21 22 22 22 22 22 22 22 22 21 21 20 19 18 17 16 14 12 11
6 7 9 10 11 11 12 12 12 12 12 13 13 13 13 15 15 15 16 16 16 17 18 19 20 20 21 21 22 23 23 22 22 22 22 21 21 21 20 19 17 16 14 13
5 6 7 8 10 11 11 11 11 11 11 12 12 12 13 13 14 15 15 15 16 16 17 18 19 19 20 20 22 22 23 23 23 23 23 22 22 21 21 20 19 18 17 15
5 5 6 7 8 9 10 10 10 11 10 11 11 12 12 12 13 14 14 15 15 16 17 18 18 19 19 20 20 21 22 23 23 23 23 23 23 23 22 21 21 20 18 17
7 7 7 7 7 8 9 9 10 10 11 11 11 11 12 12 13 13 13 13 14 15 16 17 17 18 18 19 19 20 21 22 23 23 23 23 23 23 23 22 22 22 21 19
9 9 9 9 8 8 8 8 9 9 10 10 11 11 11 11 12 12 13 13 13 13 14 15 16 17 17 18 18 19 20 21 22 22 22 23 23 23 24 23 23 22 22 21
12 12 11 11 10 10 10 9 9 9 9 10 10 10 11 11 11 11 12 12 12 13 13 14 14 15 16 17 17 18 19 20 21 21 22 22 22 23 23 23 23 22 22 22
14 14 14 14 13 12 12 11 11 11 10 10 10 10 10 10 10 10 11 11 12 12 12 12 13 13 14 15 16 16 17 18 19 20 20 21 22 22 22 23 23 22 22 22
17 16 16 16 16 15 15 14 13 12 12 11 11 10 10 10 10 10 10 11 11 11 11 11 12 12 13 13 14 14 15 16 17 18 19 19 20 21 21 22 22 22 22 21
20 20 19 19 18 18 17 16 16 15 14 14 13 12 11 11 10 10 10 10 10 10 10 11 11 11 12 12 12 13 14 14 15 16 16 17 18 19 20 20 20 20 21 20
Wind_Direction
260 269 276 283 287 291 292 293 291 292 300 302 303 303 304 303 302 301 300 298 297 296 294 292 289 287 285 283 281 279 278 277 275 273 272 271 271 271 271 270 269 270 271 269
265 270 279 286 289 292 294 294 294 296 303 305 305 307 308 308 306 305 304 303 302 300 297 295 293 291 288 286 284 281 279 278 276 274 272 270 270 270 269 268 268 267 268 268
265 278 287 290 293 298 299 299 303 303 307 307 307 308 309 312 311 310 309 308 307 305 303 300 297 296 294 291 288 285 283 280 277 274 272 270 269 268 268 267 266 266 265 265
271 284 290 295 299 304 302 307 308 308 309 310 314 316 316 322 321 319 316 315 313 311 310 308 305 303 300 296 293 289 286 283 279 276 273 271 269 268 267 265 264 263 262 261
278 288 293 298 304 307 307 310 311 312 313 314 318 319 317 327 326 324 322 322 320 319 318 317 314 313 311 307 301 297 293 288 283 278 275 273 271 269 267 265 262 260 259 258
288 295 299 304 308 310 313 315 316 315 321 327 324 320 320 330 327 326 327 328 326 327 326 324 323 323 323 321 316 311 307 301 294 287 281 277 274 271 267 263 258 257 256 255
288 293 303 311 316 319 321 323 327 333 332 321 318 319 326 327 328 331 332 333 334 334 332 331 331 331 332 330 327 324 321 317 310 302 294 287 281 274 266 262 258 256 253 251
311 317 325 324 326 328 330 331 333 332 312 308 314 321 333 332 334 336 338 340 342 343 344 343 343 343 343 340 338 335 332 329 325 322 316 308 298 282 270 263 259 255 252 248
303 320 333 334 336 337 339 340 340 336 334 324 316 329 341 340 343 347 350 351 353 355 357 358 359 360 359 357 355 353 351 351 350 346 337 332 327 309 287 274 267 259 252 245
318 328 342 345 348 351 352 352 351 349 348 340 324 332 348 354 357 358 1 4 7 9 12 15 16 14 14 14 15 15 12 9 7 4 3 358 353 347 328 304 288 269 251 245
348 351 5 5 5 6 6 7 6 2 2 356 345 352 356 1 3 6 11 14 18 23 26 26 24 23 23 24 24 23 22 21 21 19 18 18 11 3 357 349 321 289 261 251
21 17 21 25 21 17 14 13 11 10 9 8 5 11 8 10 13 15 18 20 22 24 24 24 25 26 26 27 27 25 24 24 24 23 23 22 20 15 15 14 3 344 312 280
42 36 35 39 34 25 22 19 18 19 17 19 19 21 21 22 22 21 22 25 25 24 25 26 27 28 28 28 28 26 25 25 25 24 23 21 19 17 16 14 12 7 352 321
50 45 41 38 34 31 29 28 27 28 28 29 29 29 30 29 26 27 28 29 28 30 30 29 30 30 29 28 27 26 27 27 28 26 25 25 24 23 21 21 19 15 9 354
50 45 44 43 39 36 35 35 35 33 33 33 33 34 34 31 30 29 30 31 32 32 31 30 30 30 29 29 29 28 28 28 28 27 27 26 25 24 23 22 19 16 13 4
47 44 43 44 41 38 36 36 35 34 33 32 32 32 30 29 30 31 32 32 32 31 31 30 29 28 28 28 28 28 28 28 27 27 26 25 24 25 23 22 20 17 12 4
41 39 38 40 39 37 36 34 33 32 31 30 28 29 29 29 28 29 29 28 28 28 27 27 26 27 27 28 27 27 28 27 26 26 26 25 25 25 23 22 20 19 18 15
29 29 31 32 34 35 31 29 27 26 26 27 27 27 27 26 26 27 27 27 27 25 23 23 23 24 25 26 26 27 27 27 26 27 27 26 27 27 27 25 24 24 22 19
4 12 17 20 24 31 29 24 23 21 21 20 22 22 22 22 24 24 24 25 24 23 22 22 21 22 23 24 25 25 26 27 28 28 29 30 29 29 28 28 26 25 25 25
324 339 351 360 7 16 19 19 19 19 20 16 15 15 16 16 17 18 19 21 22 22 22 22 22 22 23 24 25 25 25 26 27 28 28 29 29 28 29 28 28 28 29 31
299 310 320 331 343 355 1 4 7 10 10 10 11 10 8 9 10 10 12 15 18 18 19 19 20 21 22 23 24 25 25 26 27 28 29 29 29 29 30 30 31 32 33 34
289 294 299 307 317 326 333 341 347 354 358 360 1 1 1 2 3 5 6 7 9 11 13 15 17 18 20 21 23 24 24 26 27 28 29 30 30 31 31 32 33 34 35 36
283 288 291 295 300 305 310 316 323 330 337 344 347 350 352 354 355 358 1 2 3 5 7 10 13 15 18 20 22 23 24 25 26 28 29 30 30 31 32 33 34 36 38 39
278 281 284 286 288 290 294 298 303 309 316 323 331 337 340 343 345 347 350 354 358 360 2 4 7 10 13 15 18 20 21 23 24 26 28 29 30 31 32 34 35 37 39 40
276 277 279 281 282 283 285 287 289 294 300 306 312 319 325 330 334 337 338 342 346 350 353 356 359 2 4 7 10 13 16 18 20 22 25 27 28 30 32 34 36 37 39 41
272 272 273 275 277 278 279 280 282 284 287 292 297 302 308 313 318 324 329 333 336 339 343 346 349 352 355 358 1 5 9 12 15 18 22 24 27 29 31 33 35 37 39 41